Regional Weather Roundup
Issued by NWS Sioux Falls, SD

Home | Current Version | Previous Version | Graphics & Text | Print | Product List | Glossary On
Versions: 1 2 3 4 5 6 7 8 9 10 11 12 13 14 15 16 17 18 19 20 21 22 23 24 25 26 27 28 29 30 31 32 33 34 35 36 37 38 39 40 41 42 43 44 45 46 47 48 49 50
000
ASUS43 KFSD 272202
RWRFSD

WEATHER ROUNDUP FOR SE SOUTH DAKOTA/SW MINNESOTA/NW IOWA
NATIONAL WEATHER SERVICE SIOUX FALLS SD
500 PM CDT MON APR 27 2015

NOTE: "FAIR" INDICATES FEW OR NO CLOUDS BELOW 12,000 FEET WITH NO
SIGNIFICANT WEATHER AND OR OBSTRUCTIONS TO VISIBILITY.


SDZ038>040-050-052>070-272300-
SOUTHEAST SOUTH DAKOTA

CITY           SKY/WX    TMP DP  RH WIND       PRES   REMARKS
BROOKINGS      MOSUNNY   68  23  18 N6        30.18S
CHAMBERLAIN    NOT AVBL
HURON          SUNNY     71  20  14 MISG      30.16F
MADISON        FAIR      66  21  18 S6        30.17F
MITCHELL       SUNNY     70  24  17 VRB3      30.17F
SIOUX FALLS    PTSUNNY   69  25  19 NW7       30.16F
WINNER         FAIR      71  29  21 NE7       30.18F
YANKTON        SUNNY     70  28  21 NE3       30.15S
$$

MNZ071-072-080-081-089-090-097-098-272300-
SOUTHWEST MINNESOTA

CITY           SKY/WX    TMP DP  RH WIND       PRES   REMARKS
FAIRMONT       SUNNY     68  25  19 E5        30.15F
JACKSON        SUNNY     68  19  15 NE8       30.17S
LUVERNE        SUNNY     70  21  16 N6        30.17S
MARSHALL       SUNNY     70  21  16 E8        30.16F
MONTEVIDEO     SUNNY     73  25  16 CALM      30.17F
REDWOOD FALLS  SUNNY     70  20  15 NE7       30.16F
TRACY          SUNNY     69  23  17 E7        30.17F
WORTHINGTON    SUNNY     66  23  19 NE8       30.17S
$$

IAZ001>003-012>014-020>022-031-032-NEZ013-014-SDZ071-272300-
NORTHWEST IOWA

CITY           SKY/WX    TMP DP  RH WIND       PRES   REMARKS
DENISON        SUNNY     66  30  26 E15       30.11F
ESTHERVILLE    SUNNY     66  29  24 NE8       30.15F
SIOUX CITY     SUNNY     71  22  15 NE6       30.14F
SPENCER        SUNNY     68  28  22 E6G16     30.15F
$$

ABBREVIATIONS USED IN REMARKS
   TC - TEMPERATURE IN CELSIUS
  WCI - WIND CHILL INDEX
   HX - HEAT INDEX
  VSB - VISIBILITY




USA.gov is the U.S. government's official web portal to all federal, state and local government web resources and services.